contact:dominique.lefevre@mio.osupytheas.fr, maurice.libes@osupytheas.fr, didier.mallarino@osupytheas.fr
Project:EMSO http://www.emso-fr.org/EMSO-France
Depth: 2436.0 m
Title:EMSO Ligure Ouest : Data MII capteur MICROCAT
DateTime_Computer,Latitude,Longitude,Temperature,Conductivity,Pressure,DateTime_Instrument
DateTime_Computer,Latitude,Longitude,degC,S m-1,dbar,DateTime_Instrument
2020-09-21T00:02:49Z,42.805,6.029,13.2984,4.59985,2470.194,2020-9-21T02:03:41Z
2020-09-21T00:05:52Z,42.805,6.029,13.2983,4.59984,2470.147,2020-9-21T02:06:44Z
2020-09-21T00:08:56Z,42.805,6.029,13.2984,4.59986,2470.18,2020-9-21T02:09:48Z
2020-09-21T00:11:58Z,42.805,6.029,13.2988,4.59986,2470.171,2020-9-21T02:12:50Z
2020-09-21T00:15:02Z,42.805,6.029,13.2984,4.59986,2470.156,2020-9-21T02:15:54Z
2020-09-21T00:18:05Z,42.805,6.029,13.2979,4.59986,2470.171,2020-9-21T02:18:57Z
2020-09-21T00:21:08Z,42.805,6.029,13.2979,4.59985,2470.156,2020-9-21T02:22:01Z
2020-09-21T00:24:12Z,42.805,6.029,13.2986,4.59985,2470.133,2020-9-21T02:25:04Z
2020-09-21T00:27:15Z,42.805,6.029,13.2986,4.59993,2470.133,2020-9-21T02:28:07Z
2020-09-21T00:30:17Z,42.805,6.029,13.2986,4.59984,2470.124,2020-9-21T02:31:09Z
2020-09-21T00:33:21Z,42.805,6.029,13.2982,4.59984,2470.1,2020-9-21T02:34:13Z
2020-09-21T00:36:25Z,42.805,6.029,13.2981,4.59986,2470.147,2020-9-21T02:37:18Z
2020-09-21T00:39:27Z,42.805,6.029,13.2983,4.59983,2470.147,2020-9-21T02:40:19Z
2020-09-21T00:42:30Z,42.805,6.029,13.2981,4.59985,2470.156,2020-9-21T02:43:22Z
2020-09-21T00:45:33Z,42.805,6.029,13.2984,4.59986,2470.156,2020-9-21T02:46:25Z
2020-09-21T00:48:38Z,42.805,6.029,13.2984,4.59985,2470.133,2020-9-21T02:49:30Z
2020-09-21T00:51:42Z,42.805,6.029,13.2983,4.59984,2470.133,2020-9-21T02:52:34Z
2020-09-21T00:54:47Z,42.805,6.029,13.2980,4.59985,2470.087,2020-9-21T02:55:39Z
2020-09-21T00:57:50Z,42.805,6.029,13.2981,4.59983,2470.124,2020-9-21T02:58:42Z
2020-09-21T01:00:53Z,42.805,6.029,13.2979,4.59984,2470.147,2020-9-21T03:01:45Z
2020-09-21T01:03:57Z,42.805,6.029,13.2983,4.59986,2470.063,2020-9-21T03:04:49Z
2020-09-21T01:06:59Z,42.805,6.029,13.2983,4.59985,2470.133,2020-9-21T03:07:51Z
2020-09-21T01:10:01Z,42.805,6.029,13.2981,4.59984,2470.133,2020-9-21T03:10:53Z
2020-09-21T01:13:03Z,42.805,6.029,13.2983,4.59984,2470.133,2020-9-21T03:13:55Z
2020-09-21T01:16:05Z,42.805,6.029,13.2985,4.59985,2470.124,2020-9-21T03:16:57Z
2020-09-21T01:19:09Z,42.805,6.029,13.2987,4.59983,2470.087,2020-9-21T03:20:01Z
2020-09-21T01:22:12Z,42.805,6.029,13.2982,4.59984,2470.087,2020-9-21T03:23:04Z
2020-09-21T01:25:15Z,42.805,6.029,13.2985,4.59985,2470.11,2020-9-21T03:26:07Z
2020-09-21T01:28:19Z,42.805,6.029,13.2985,4.59990,2470.087,2020-9-21T03:29:11Z
2020-09-21T01:31:23Z,42.805,6.029,13.2981,4.59984,2470.063,2020-9-21T03:32:15Z
2020-09-21T01:34:27Z,42.805,6.029,13.2983,4.59992,2470.1,2020-9-21T03:35:19Z
2020-09-21T01:37:28Z,42.805,6.029,13.2984,4.59984,2470.124,2020-9-21T03:38:20Z
2020-09-21T01:40:31Z,42.805,6.029,13.2982,4.59986,2470.1,2020-9-21T03:41:23Z
2020-09-21T01:43:36Z,42.805,6.029,13.2983,4.59986,2470.11,2020-9-21T03:44:28Z
2020-09-21T01:46:39Z,42.805,6.029,13.2982,4.59984,2470.04,2020-9-21T03:47:31Z
2020-09-21T01:49:41Z,42.805,6.029,13.2983,4.59983,2470.087,2020-9-21T03:50:33Z
2020-09-21T01:52:44Z,42.805,6.029,13.2984,4.59983,2470.087,2020-9-21T03:53:37Z
2020-09-21T01:55:49Z,42.805,6.029,13.2982,4.59983,2470.077,2020-9-21T03:56:42Z
2020-09-21T01:58:53Z,42.805,6.029,13.2980,4.59983,2470.087,2020-9-21T03:59:45Z
2020-09-21T02:01:56Z,42.805,6.029,13.2982,4.59982,2470.087,2020-9-21T04:02:48Z
2020-09-21T02:05:00Z,42.805,6.029,13.2983,4.59983,2470.063,2020-9-21T04:05:52Z
2020-09-21T02:08:03Z,42.805,6.029,13.2983,4.59983,2470.053,2020-9-21T04:08:55Z
2020-09-21T02:11:05Z,42.805,6.029,13.2982,4.59983,2470.077,2020-9-21T04:11:57Z
2020-09-21T02:14:09Z,42.805,6.029,13.2982,4.59982,2470.087,2020-9-21T04:15:02Z
2020-09-21T02:17:14Z,42.805,6.029,13.2982,4.59983,2470.077,2020-9-21T04:18:07Z
2020-09-21T02:20:18Z,42.805,6.029,13.2980,4.59983,2470.063,2020-9-21T04:21:10Z
2020-09-21T02:23:22Z,42.805,6.029,13.2979,4.59983,2470.063,2020-9-21T04:24:14Z
2020-09-21T02:26:25Z,42.805,6.029,13.2982,4.59983,2470.063,2020-9-21T04:27:18Z
2020-09-21T02:29:29Z,42.805,6.029,13.2982,4.59981,2470.1,2020-9-21T04:30:21Z
2020-09-21T02:32:33Z,42.805,6.029,13.2980,4.59982,2470.053,2020-9-21T04:33:25Z
2020-09-21T02:35:35Z,42.805,6.029,13.2979,4.59981,2470.04,2020-9-21T04:36:27Z
2020-09-21T02:38:39Z,42.805,6.029,13.2981,4.59982,2470.087,2020-9-21T04:39:31Z
2020-09-21T02:41:42Z,42.805,6.029,13.2977,4.59983,2470.077,2020-9-21T04:42:34Z
2020-09-21T02:44:47Z,42.805,6.029,13.2982,4.59982,2470.04,2020-9-21T04:45:39Z
2020-09-21T02:47:50Z,42.805,6.029,13.2982,4.59982,2470.017,2020-9-21T04:48:42Z
2020-09-21T02:50:54Z,42.805,6.029,13.2979,4.59985,2470.04,2020-9-21T04:51:46Z
2020-09-21T02:53:58Z,42.805,6.029,13.2985,4.59981,2470.053,2020-9-21T04:54:50Z
2020-09-21T02:57:03Z,42.805,6.029,13.2974,4.59981,2470.063,2020-9-21T04:57:55Z
2020-09-21T03:00:04Z,42.805,6.029,13.2979,4.59982,2470.04,2020-9-21T05:00:56Z
2020-09-21T03:03:08Z,42.805,6.029,13.2982,4.59981,2470.04,2020-9-21T05:04:00Z
2020-09-21T03:06:09Z,42.805,6.029,13.2981,4.59981,2470.063,2020-9-21T05:07:01Z
2020-09-21T03:09:12Z,42.805,6.029,13.2984,4.59980,2470.04,2020-9-21T05:10:04Z
2020-09-21T03:12:16Z,42.805,6.029,13.2979,4.59981,2470.053,2020-9-21T05:13:09Z
2020-09-21T03:15:20Z,42.805,6.029,13.2978,4.59982,2470.04,2020-9-21T05:16:12Z
2020-09-21T03:18:24Z,42.805,6.029,13.2981,4.59982,2470.053,2020-9-21T05:19:16Z
2020-09-21T03:21:28Z,42.805,6.029,13.2980,4.59982,2470.053,2020-9-21T05:22:20Z
2020-09-21T03:24:31Z,42.805,6.029,13.2980,4.59983,2470.017,2020-9-21T05:25:23Z
2020-09-21T03:27:35Z,42.805,6.029,13.2979,4.59981,2470.03,2020-9-21T05:28:27Z
2020-09-21T03:30:39Z,42.805,6.029,13.2976,4.59980,2470.053,2020-9-21T05:31:31Z
2020-09-21T03:33:41Z,42.805,6.029,13.2979,4.59981,2470.017,2020-9-21T05:34:33Z
2020-09-21T03:36:44Z,42.805,6.029,13.2979,4.59982,2470.04,2020-9-21T05:37:36Z
2020-09-21T03:39:47Z,42.805,6.029,13.2978,4.59982,2470.017,2020-9-21T05:40:39Z
2020-09-21T03:42:48Z,42.805,6.029,13.2981,4.59984,2470.026,2020-9-21T05:43:40Z
2020-09-21T03:45:51Z,42.805,6.029,13.2978,4.59981,2470.017,2020-9-21T05:46:43Z
2020-09-21T03:48:55Z,42.805,6.029,13.2977,4.59981,2470.017,2020-9-21T05:49:47Z
2020-09-21T03:51:59Z,42.805,6.029,13.2978,4.59981,2470.03,2020-9-21T05:52:51Z
2020-09-21T03:55:02Z,42.805,6.029,13.2982,4.59983,2470.077,2020-9-21T05:55:54Z
2020-09-21T03:58:05Z,42.805,6.029,13.2982,4.59980,2470.04,2020-9-21T05:58:58Z
2020-09-21T04:01:07Z,42.805,6.029,13.2976,4.59980,2470.017,2020-9-21T06:01:59Z
2020-09-21T04:04:10Z,42.805,6.029,13.2981,4.59988,2470.077,2020-9-21T06:05:02Z
2020-09-21T04:07:13Z,42.805,6.029,13.2974,4.59982,2469.993,2020-9-21T06:08:05Z
2020-09-21T04:10:17Z,42.805,6.029,13.2982,4.59982,2470.03,2020-9-21T06:11:10Z
2020-09-21T04:13:21Z,42.805,6.029,13.2981,4.59982,2470.017,2020-9-21T06:14:14Z
2020-09-21T04:16:24Z,42.805,6.029,13.2979,4.59987,2470.063,2020-9-21T06:17:16Z
2020-09-21T04:19:26Z,42.805,6.029,13.2978,4.59983,2470.017,2020-9-21T06:20:18Z
2020-09-21T04:22:30Z,42.805,6.029,13.2983,4.59981,2470.04,2020-9-21T06:23:21Z
2020-09-21T04:25:33Z,42.805,6.029,13.2980,4.59981,2470.017,2020-9-21T06:26:25Z
2020-09-21T04:28:37Z,42.805,6.029,13.2978,4.59982,2470.017,2020-9-21T06:29:29Z
2020-09-21T04:31:40Z,42.805,6.029,13.2979,4.59980,2470.04,2020-9-21T06:32:32Z
2020-09-21T04:34:44Z,42.805,6.029,13.2979,4.59981,2470.017,2020-9-21T06:35:36Z
2020-09-21T04:37:47Z,42.805,6.029,13.2976,4.59983,2470.017,2020-9-21T06:38:39Z
2020-09-21T04:40:51Z,42.805,6.029,13.2977,4.59988,2469.993,2020-9-21T06:41:43Z
2020-09-21T04:43:54Z,42.805,6.029,13.2979,4.59982,2469.984,2020-9-21T06:44:46Z
2020-09-21T04:46:57Z,42.805,6.029,13.2982,4.59980,2470.017,2020-9-21T06:47:50Z
2020-09-21T04:50:01Z,42.805,6.029,13.2973,4.59980,2469.993,2020-9-21T06:50:53Z
2020-09-21T04:53:02Z,42.805,6.029,13.2980,4.59981,2469.993,2020-9-21T06:53:54Z
2020-09-21T04:56:05Z,42.805,6.029,13.2980,4.59981,2470.04,2020-9-21T06:56:57Z
2020-09-21T04:59:09Z,42.805,6.029,13.2976,4.59981,2470.03,2020-9-21T07:00:01Z
2020-09-21T05:02:10Z,42.805,6.029,13.2979,4.59981,2470.017,2020-9-21T07:03:02Z
2020-09-21T05:05:14Z,42.805,6.029,13.2976,4.59981,2470.053,2020-9-21T07:06:06Z
2020-09-21T05:08:16Z,42.805,6.029,13.2979,4.59981,2470.017,2020-9-21T07:09:09Z
2020-09-21T05:11:19Z,42.805,6.029,13.2981,4.59982,2470.007,2020-9-21T07:12:11Z
2020-09-21T05:14:22Z,42.805,6.029,13.2979,4.59981,2470.053,2020-9-21T07:15:14Z
2020-09-21T05:17:26Z,42.805,6.029,13.2979,4.59981,2470.017,2020-9-21T07:18:18Z
2020-09-21T05:20:30Z,42.805,6.029,13.2979,4.59980,2470.053,2020-9-21T07:21:22Z
2020-09-21T05:23:34Z,42.805,6.029,13.2976,4.59980,2470.017,2020-9-21T07:24:26Z
2020-09-21T05:26:35Z,42.805,6.029,13.2978,4.59980,2470.04,2020-9-21T07:27:27Z
2020-09-21T05:29:37Z,42.805,6.029,13.2978,4.59981,2470.063,2020-9-21T07:30:30Z
2020-09-21T05:32:40Z,42.805,6.029,13.2979,4.59981,2470.03,2020-9-21T07:33:32Z
2020-09-21T05:35:44Z,42.805,6.029,13.2980,4.59981,2470.053,2020-9-21T07:36:36Z
2020-09-21T05:38:46Z,42.805,6.029,13.2979,4.59980,2470.03,2020-9-21T07:39:38Z
2020-09-21T05:41:50Z,42.805,6.029,13.2979,4.59980,2470.04,2020-9-21T07:42:42Z
2020-09-21T05:44:53Z,42.805,6.029,13.2977,4.59981,2470.053,2020-9-21T07:45:45Z
2020-09-21T05:47:57Z,42.805,6.029,13.2977,4.59980,2470.017,2020-9-21T07:48:49Z
2020-09-21T05:50:59Z,42.805,6.029,13.2978,4.59981,2470.053,2020-9-21T07:51:51Z
2020-09-21T05:54:02Z,42.805,6.029,13.2980,4.59982,2470.04,2020-9-21T07:54:55Z
2020-09-21T05:57:04Z,42.805,6.029,13.2976,4.59980,2470.03,2020-9-21T07:57:56Z
2020-09-21T06:00:08Z,42.805,6.029,13.2979,4.59981,2470.04,2020-9-21T08:01:00Z
2020-09-21T06:03:09Z,42.805,6.029,13.2979,4.59981,2470.04,2020-9-21T08:04:01Z
2020-09-21T06:06:14Z,42.805,6.029,13.2981,4.59981,2470.077,2020-9-21T08:07:06Z
2020-09-21T06:09:19Z,42.805,6.029,13.2977,4.59981,2470.063,2020-9-21T08:10:11Z
2020-09-21T06:12:22Z,42.805,6.029,13.2977,4.59981,2470.063,2020-9-21T08:13:14Z
2020-09-21T06:15:25Z,42.805,6.029,13.2976,4.59988,2470.087,2020-9-21T08:16:17Z
2020-09-21T06:18:26Z,42.805,6.029,13.2978,4.59981,2470.053,2020-9-21T08:19:18Z
2020-09-21T06:21:29Z,42.805,6.029,13.2978,4.59981,2470.077,2020-9-21T08:22:22Z
2020-09-21T06:24:33Z,42.805,6.029,13.2979,4.59981,2470.11,2020-9-21T08:25:25Z
2020-09-21T06:27:34Z,42.805,6.029,13.2981,4.59982,2470.063,2020-9-21T08:28:26Z
2020-09-21T06:30:39Z,42.805,6.029,13.2979,4.59982,2470.11,2020-9-21T08:31:31Z
2020-09-21T06:33:42Z,42.805,6.029,13.2973,4.59981,2470.1,2020-9-21T08:34:34Z
2020-09-21T06:36:46Z,42.805,6.029,13.2982,4.59981,2470.073,2020-9-21T08:37:38Z
2020-09-21T06:39:48Z,42.805,6.029,13.2978,4.59982,2470.124,2020-9-21T08:40:40Z
2020-09-21T06:42:52Z,42.805,6.029,13.2983,4.59981,2470.133,2020-9-21T08:43:44Z
2020-09-21T06:45:55Z,42.805,6.029,13.2982,4.59983,2470.087,2020-9-21T08:46:47Z
2020-09-21T06:49:00Z,42.805,6.029,13.2989,4.59980,2470.1,2020-9-21T08:49:52Z
2020-09-21T06:52:01Z,42.805,6.029,13.2982,4.59981,2470.147,2020-9-21T08:52:53Z
2020-09-21T06:55:05Z,42.805,6.029,13.2977,4.59980,2470.147,2020-9-21T08:55:57Z
2020-09-21T06:58:09Z,42.805,6.029,13.2978,4.59980,2470.1,2020-9-21T08:59:02Z
2020-09-21T07:01:12Z,42.805,6.029,13.2978,4.59980,2470.087,2020-9-21T09:02:05Z
2020-09-21T07:04:16Z,42.805,6.029,13.2979,4.59980,2470.147,2020-9-21T09:05:08Z
2020-09-21T07:07:19Z,42.805,6.029,13.2978,4.59980,2470.147,2020-9-21T09:08:11Z
2020-09-21T07:10:22Z,42.805,6.029,13.2976,4.59979,2470.11,2020-9-21T09:11:14Z
2020-09-21T07:13:25Z,42.805,6.029,13.2979,4.59980,2470.11,2020-9-21T09:14:17Z
2020-09-21T07:16:28Z,42.805,6.029,13.2981,4.59980,2470.147,2020-9-21T09:17:20Z
2020-09-21T07:19:29Z,42.805,6.029,13.2982,4.59982,2470.171,2020-9-21T09:20:22Z
2020-09-21T07:22:33Z,42.805,6.029,13.2982,4.59981,2470.147,2020-9-21T09:23:25Z
2020-09-21T07:25:35Z,42.805,6.029,13.2980,4.59981,2470.133,2020-9-21T09:26:27Z
2020-09-21T07:28:38Z,42.805,6.029,13.2980,4.59981,2470.147,2020-9-21T09:29:30Z
2020-09-21T07:31:41Z,42.805,6.029,13.2980,4.59985,2470.18,2020-9-21T09:32:33Z
2020-09-21T07:34:42Z,42.805,6.029,13.2979,4.59981,2470.147,2020-9-21T09:35:34Z
2020-09-21T07:37:46Z,42.805,6.029,13.2982,4.59983,2470.171,2020-9-21T09:38:38Z
2020-09-21T07:40:50Z,42.805,6.029,13.2982,4.59985,2470.147,2020-9-21T09:41:42Z
2020-09-21T07:43:52Z,42.805,6.029,13.2979,4.59981,2470.194,2020-9-21T09:44:44Z
2020-09-21T07:46:53Z,42.805,6.029,13.2976,4.59981,2470.217,2020-9-21T09:47:45Z
2020-09-21T07:49:57Z,42.805,6.029,13.2982,4.59982,2470.194,2020-9-21T09:50:49Z
2020-09-21T07:53:00Z,42.805,6.029,13.2982,4.59983,2470.133,2020-9-21T09:53:52Z
2020-09-21T07:56:03Z,42.805,6.029,13.2983,4.59982,2470.18,2020-9-21T09:56:55Z
2020-09-21T07:59:08Z,42.805,6.029,13.2983,4.59981,2470.203,2020-9-21T10:00:00Z
2020-09-21T08:02:10Z,42.805,6.029,13.2981,4.59982,2470.18,2020-9-21T10:03:02Z
2020-09-21T08:05:13Z,42.805,6.029,13.2979,4.59981,2470.203,2020-9-21T10:06:05Z
2020-09-21T08:08:15Z,42.805,6.029,13.2976,4.59981,2470.166,2020-9-21T10:09:07Z
2020-09-21T08:11:19Z,42.805,6.029,13.2979,4.59981,2470.194,2020-9-21T10:12:12Z
2020-09-21T08:14:21Z,42.805,6.029,13.2978,4.59980,2470.18,2020-9-21T10:15:13Z
2020-09-21T08:17:23Z,42.805,6.029,13.2981,4.59981,2470.217,2020-9-21T10:18:15Z
2020-09-21T08:20:28Z,42.805,6.029,13.2982,4.59980,2470.217,2020-9-21T10:21:20Z
2020-09-21T08:23:31Z,42.805,6.029,13.2983,4.59982,2470.18,2020-9-21T10:24:23Z
2020-09-21T08:26:35Z,42.805,6.029,13.2979,4.59980,2470.203,2020-9-21T10:27:28Z
2020-09-21T08:29:37Z,42.805,6.029,13.2975,4.59980,2470.203,2020-9-21T10:30:29Z
2020-09-21T08:32:40Z,42.805,6.029,13.2977,4.59981,2470.203,2020-9-21T10:33:33Z
2020-09-21T08:35:43Z,42.805,6.029,13.2981,4.59981,2470.203,2020-9-21T10:36:35Z
2020-09-21T08:38:46Z,42.805,6.029,13.2979,4.59983,2470.217,2020-9-21T10:39:39Z
2020-09-21T08:41:49Z,42.805,6.029,13.2982,4.59981,2470.24,2020-9-21T10:42:41Z
2020-09-21T08:44:52Z,42.805,6.029,13.2983,4.59981,2470.24,2020-9-21T10:45:44Z
2020-09-21T08:47:53Z,42.805,6.029,13.2982,4.59986,2470.203,2020-9-21T10:48:46Z
2020-09-21T08:50:57Z,42.805,6.029,13.2975,4.59983,2470.227,2020-9-21T10:51:49Z
2020-09-21T08:54:01Z,42.805,6.029,13.2979,4.59985,2470.227,2020-9-21T10:54:54Z
2020-09-21T08:57:05Z,42.805,6.029,13.2975,4.59985,2470.203,2020-9-21T10:57:57Z
2020-09-21T09:00:08Z,42.805,6.029,13.2977,4.59981,2470.18,2020-9-21T11:01:00Z
2020-09-21T09:03:11Z,42.805,6.029,13.2979,4.59981,2470.24,2020-9-21T11:04:03Z
2020-09-21T09:06:14Z,42.805,6.029,13.2976,4.59983,2470.217,2020-9-21T11:07:06Z
2020-09-21T09:09:19Z,42.805,6.029,13.2982,4.59981,2470.25,2020-9-21T11:10:11Z
2020-09-21T09:12:23Z,42.805,6.029,13.2975,4.59982,2470.25,2020-9-21T11:13:15Z
2020-09-21T09:15:26Z,42.805,6.029,13.2977,4.59980,2470.227,2020-9-21T11:16:18Z
2020-09-21T09:18:31Z,42.805,6.029,13.2979,4.59982,2470.227,2020-9-21T11:19:23Z
2020-09-21T09:21:34Z,42.805,6.029,13.2978,4.59984,2470.24,2020-9-21T11:22:26Z
2020-09-21T09:24:38Z,42.805,6.029,13.2980,4.59981,2470.203,2020-9-21T11:25:30Z
2020-09-21T09:27:40Z,42.805,6.029,13.2977,4.59984,2470.213,2020-9-21T11:28:32Z
2020-09-21T09:30:45Z,42.805,6.029,13.2979,4.59981,2470.227,2020-9-21T11:31:37Z
2020-09-21T09:33:48Z,42.805,6.029,13.2977,4.59981,2470.25,2020-9-21T11:34:40Z
2020-09-21T09:36:51Z,42.805,6.029,13.2977,4.59983,2470.217,2020-9-21T11:37:44Z
2020-09-21T09:39:55Z,42.805,6.029,13.2979,4.59981,2470.24,2020-9-21T11:40:47Z
2020-09-21T09:42:58Z,42.805,6.029,13.2982,4.59982,2470.264,2020-9-21T11:43:50Z
2020-09-21T09:46:02Z,42.805,6.029,13.2983,4.59984,2470.24,2020-9-21T11:46:54Z
2020-09-21T09:49:06Z,42.805,6.029,13.2980,4.59982,2470.24,2020-9-21T11:49:58Z
2020-09-21T09:52:11Z,42.805,6.029,13.2982,4.59981,2470.227,2020-9-21T11:53:03Z
2020-09-21T09:55:13Z,42.805,6.029,13.2976,4.59981,2470.227,2020-9-21T11:56:05Z
2020-09-21T09:58:18Z,42.805,6.029,13.2979,4.59981,2470.25,2020-9-21T11:59:10Z
2020-09-21T10:01:22Z,42.805,6.029,13.2982,4.59982,2470.227,2020-9-21T12:02:14Z
2020-09-21T10:04:26Z,42.805,6.029,13.2980,4.59982,2470.287,2020-9-21T12:05:19Z
2020-09-21T10:07:31Z,42.805,6.029,13.2982,4.59981,2470.264,2020-9-21T12:08:23Z
2020-09-21T10:10:35Z,42.805,6.029,13.2976,4.59981,2470.25,2020-9-21T12:11:27Z
2020-09-21T10:13:36Z,42.805,6.029,13.2980,4.59981,2470.25,2020-9-21T12:14:28Z
2020-09-21T10:16:37Z,42.805,6.029,13.2981,4.59981,2470.227,2020-9-21T12:17:30Z
2020-09-21T10:19:41Z,42.805,6.029,13.2979,4.59982,2470.25,2020-9-21T12:20:33Z
2020-09-21T10:22:48Z,42.805,6.029,13.2979,4.59980,2470.25,2020-9-21T12:23:36Z
2020-09-21T10:25:47Z,42.805,6.029,13.2980,4.59980,2470.24,2020-9-21T12:26:39Z
2020-09-21T10:28:51Z,42.805,6.029,13.2977,4.59982,2470.24,2020-9-21T12:29:43Z
2020-09-21T10:31:55Z,42.805,6.029,13.2980,4.59981,2470.227,2020-9-21T12:32:47Z
2020-09-21T10:34:57Z,42.805,6.029,13.2981,4.59981,2470.227,2020-9-21T12:35:49Z
2020-09-21T10:38:01Z,42.805,6.029,13.2979,4.59981,2470.227,2020-9-21T12:38:53Z
2020-09-21T10:41:04Z,42.805,6.029,13.2979,4.59981,2470.264,2020-9-21T12:41:56Z
2020-09-21T10:44:07Z,42.805,6.029,13.2978,4.59981,2470.203,2020-9-21T12:45:00Z
2020-09-21T10:47:12Z,42.805,6.029,13.2979,4.59981,2470.227,2020-9-21T12:48:04Z
2020-09-21T10:50:16Z,42.805,6.029,13.2982,4.59981,2470.217,2020-9-21T12:51:08Z
2020-09-21T10:53:19Z,42.805,6.029,13.2979,4.59981,2470.227,2020-9-21T12:54:11Z
2020-09-21T10:56:23Z,42.805,6.029,13.2981,4.59981,2470.227,2020-9-21T12:57:15Z
2020-09-21T10:59:26Z,42.805,6.029,13.2981,4.59981,2470.203,2020-9-21T13:00:18Z
2020-09-21T11:02:28Z,42.805,6.029,13.2982,4.59981,2470.227,2020-9-21T13:03:20Z
2020-09-21T11:05:30Z,42.805,6.029,13.2980,4.59982,2470.227,2020-9-21T13:06:22Z
2020-09-21T11:08:34Z,42.805,6.029,13.2979,4.59980,2470.217,2020-9-21T13:09:27Z
2020-09-21T11:11:39Z,42.805,6.029,13.2980,4.59980,2470.203,2020-9-21T13:12:31Z
2020-09-21T11:14:41Z,42.805,6.029,13.2976,4.59980,2470.24,2020-9-21T13:15:33Z
2020-09-21T11:17:44Z,42.805,6.029,13.2979,4.59981,2470.217,2020-9-21T13:18:36Z
2020-09-21T11:20:46Z,42.805,6.029,13.2981,4.59981,2470.203,2020-9-21T13:21:38Z
2020-09-21T11:23:50Z,42.805,6.029,13.2983,4.59982,2470.203,2020-9-21T13:24:42Z
2020-09-21T11:26:53Z,42.805,6.029,13.2980,4.59981,2470.18,2020-9-21T13:27:45Z
2020-09-21T11:29:56Z,42.805,6.029,13.2978,4.59981,2470.203,2020-9-21T13:30:48Z
2020-09-21T11:32:58Z,42.805,6.029,13.2980,4.59981,2470.203,2020-9-21T13:33:50Z
2020-09-21T11:36:03Z,42.805,6.029,13.2975,4.59981,2470.194,2020-9-21T13:36:55Z
2020-09-21T11:39:05Z,42.805,6.029,13.2979,4.59981,2470.18,2020-9-21T13:39:57Z
2020-09-21T11:42:07Z,42.805,6.029,13.2979,4.59981,2470.203,2020-9-21T13:42:59Z
2020-09-21T11:45:10Z,42.805,6.029,13.2977,4.59981,2470.203,2020-9-21T13:46:03Z
2020-09-21T11:48:15Z,42.805,6.029,13.2980,4.59980,2470.217,2020-9-21T13:49:07Z
2020-09-21T11:51:18Z,42.805,6.029,13.2982,4.59981,2470.18,2020-9-21T13:52:10Z
2020-09-21T11:54:21Z,42.805,6.029,13.2978,4.59980,2470.18,2020-9-21T13:55:13Z
2020-09-21T11:57:23Z,42.805,6.029,13.2980,4.59980,2470.194,2020-9-21T13:58:15Z
2020-09-21T12:00:26Z,42.805,6.029,13.2979,4.59981,2470.18,2020-9-21T14:01:18Z
2020-09-21T12:03:28Z,42.805,6.029,13.2978,4.59981,2470.194,2020-9-21T14:04:20Z
2020-09-21T12:06:30Z,42.805,6.029,13.2982,4.59981,2470.18,2020-9-21T14:07:22Z
2020-09-21T12:09:32Z,42.805,6.029,13.2980,4.59979,2470.156,2020-9-21T14:10:24Z
2020-09-21T12:12:34Z,42.805,6.029,13.2979,4.59981,2470.171,2020-9-21T14:13:26Z
2020-09-21T12:15:37Z,42.805,6.029,13.2981,4.59980,2470.147,2020-9-21T14:16:30Z
2020-09-21T12:18:41Z,42.805,6.029,13.2981,4.59980,2470.171,2020-9-21T14:19:33Z
2020-09-21T12:21:45Z,42.805,6.029,13.2975,4.59981,2470.156,2020-9-21T14:22:37Z
2020-09-21T12:24:48Z,42.805,6.029,13.2982,4.59981,2470.18,2020-9-21T14:25:40Z
2020-09-21T12:27:52Z,42.805,6.029,13.2979,4.59981,2470.156,2020-9-21T14:28:44Z
2020-09-21T12:30:53Z,42.805,6.029,13.2981,4.59980,2470.119,2020-9-21T14:31:45Z
2020-09-21T12:33:54Z,42.805,6.029,13.2979,4.59981,2470.156,2020-9-21T14:34:47Z
2020-09-21T12:36:59Z,42.805,6.029,13.2979,4.59991,2470.133,2020-9-21T14:37:51Z
2020-09-21T12:40:03Z,42.805,6.029,13.2979,4.59981,2470.171,2020-9-21T14:40:55Z
2020-09-21T12:43:07Z,42.805,6.029,13.2980,4.59981,2470.171,2020-9-21T14:43:59Z
2020-09-21T12:46:10Z,42.805,6.029,13.2979,4.59981,2470.147,2020-9-21T14:47:02Z
2020-09-21T12:49:13Z,42.805,6.029,13.2980,4.59984,2470.147,2020-9-21T14:50:05Z
2020-09-21T12:52:18Z,42.805,6.029,13.2977,4.59981,2470.133,2020-9-21T14:53:10Z
2020-09-21T12:55:20Z,42.805,6.029,13.2979,4.59979,2470.133,2020-9-21T14:56:12Z
2020-09-21T12:58:23Z,42.805,6.029,13.2981,4.59980,2470.133,2020-9-21T14:59:15Z
2020-09-21T13:01:26Z,42.805,6.029,13.2976,4.59981,2470.171,2020-9-21T15:02:18Z
2020-09-21T13:04:30Z,42.805,6.029,13.2979,4.59979,2470.156,2020-9-21T15:05:22Z
2020-09-21T13:07:32Z,42.805,6.029,13.2983,4.59981,2470.171,2020-9-21T15:08:24Z
2020-09-21T13:10:33Z,42.805,6.029,13.2982,4.59981,2470.11,2020-9-21T15:11:25Z
2020-09-21T13:13:37Z,42.805,6.029,13.2983,4.59981,2470.171,2020-9-21T15:14:29Z
2020-09-21T13:16:40Z,42.805,6.029,13.2979,4.59981,2470.133,2020-9-21T15:17:32Z
2020-09-21T13:19:42Z,42.805,6.029,13.2979,4.59981,2470.133,2020-9-21T15:20:34Z
2020-09-21T13:22:46Z,42.805,6.029,13.2977,4.59981,2470.133,2020-9-21T15:23:38Z
2020-09-21T13:25:49Z,42.805,6.029,13.2979,4.59982,2470.133,2020-9-21T15:26:42Z
2020-09-21T13:28:53Z,42.805,6.029,13.2982,4.59982,2470.11,2020-9-21T15:29:45Z
2020-09-21T13:31:56Z,42.805,6.029,13.2980,4.59981,2470.133,2020-9-21T15:32:48Z
2020-09-21T13:35:00Z,42.805,6.029,13.2986,4.59980,2470.147,2020-9-21T15:35:52Z
2020-09-21T13:38:02Z,42.805,6.029,13.2982,4.59981,2470.133,2020-9-21T15:38:55Z
2020-09-21T13:41:06Z,42.805,6.029,13.2975,4.59980,2470.124,2020-9-21T15:41:58Z
2020-09-21T13:44:08Z,42.805,6.029,13.2976,4.59981,2470.133,2020-9-21T15:45:01Z
2020-09-21T13:47:09Z,42.805,6.029,13.2980,4.59981,2470.133,2020-9-21T15:48:02Z
2020-09-21T13:50:14Z,42.805,6.029,13.2979,4.59981,2470.147,2020-9-21T15:51:06Z
2020-09-21T13:53:18Z,42.805,6.029,13.2980,4.59980,2470.147,2020-9-21T15:54:10Z
2020-09-21T13:56:21Z,42.805,6.029,13.2976,4.59981,2470.133,2020-9-21T15:57:13Z
2020-09-21T13:59:26Z,42.805,6.029,13.2974,4.59980,2470.11,2020-9-21T16:00:18Z
2020-09-21T14:02:28Z,42.805,6.029,13.2982,4.59981,2470.124,2020-9-21T16:03:20Z
2020-09-21T14:05:31Z,42.805,6.029,13.2981,4.59980,2470.147,2020-9-21T16:06:23Z
2020-09-21T14:08:34Z,42.805,6.029,13.2981,4.59981,2470.11,2020-9-21T16:09:26Z
2020-09-21T14:11:36Z,42.805,6.029,13.2981,4.59984,2470.11,2020-9-21T16:12:28Z
2020-09-21T14:14:39Z,42.805,6.029,13.2982,4.59980,2470.124,2020-9-21T16:15:31Z
2020-09-21T14:17:43Z,42.805,6.029,13.2980,4.59985,2470.124,2020-9-21T16:18:35Z
2020-09-21T14:20:46Z,42.805,6.029,13.2977,4.59980,2470.087,2020-9-21T16:21:38Z
2020-09-21T14:23:49Z,42.805,6.029,13.2979,4.59981,2470.11,2020-9-21T16:24:41Z
2020-09-21T14:26:54Z,42.805,6.029,13.2979,4.59980,2470.124,2020-9-21T16:27:46Z
2020-09-21T14:29:56Z,42.805,6.029,13.2979,4.59980,2470.11,2020-9-21T16:30:48Z
2020-09-21T14:33:00Z,42.805,6.029,13.2981,4.59980,2470.087,2020-9-21T16:33:52Z
2020-09-21T14:36:03Z,42.805,6.029,13.2979,4.59981,2470.11,2020-9-21T16:36:55Z
2020-09-21T14:39:04Z,42.805,6.029,13.2985,4.59981,2470.087,2020-9-21T16:39:56Z
2020-09-21T14:42:07Z,42.805,6.029,13.2979,4.59981,2470.1,2020-9-21T16:42:59Z
2020-09-21T14:45:11Z,42.805,6.029,13.2979,4.59981,2470.087,2020-9-21T16:46:04Z
2020-09-21T14:48:16Z,42.805,6.029,13.2981,4.59981,2470.1,2020-9-21T16:49:08Z
2020-09-21T14:51:20Z,42.805,6.029,13.2976,4.59988,2470.1,2020-9-21T16:52:13Z
2020-09-21T14:54:23Z,42.805,6.029,13.2979,4.59979,2470.077,2020-9-21T16:55:15Z
2020-09-21T14:57:24Z,42.805,6.029,13.2981,4.59979,2470.063,2020-9-21T16:58:16Z
2020-09-21T15:00:26Z,42.805,6.029,13.2981,4.59981,2470.087,2020-9-21T17:01:18Z
2020-09-21T15:03:29Z,42.805,6.029,13.2979,4.59990,2470.087,2020-9-21T17:04:21Z
2020-09-21T15:06:32Z,42.805,6.029,13.2979,4.59981,2470.1,2020-9-21T17:07:24Z
2020-09-21T15:09:36Z,42.805,6.029,13.2980,4.59980,2470.063,2020-9-21T17:10:28Z
2020-09-21T15:12:39Z,42.805,6.029,13.2979,4.59979,2470.087,2020-9-21T17:13:31Z
2020-09-21T15:15:41Z,42.805,6.029,13.2980,4.59980,2470.077,2020-9-21T17:16:33Z